Mombasa, Kenya

10:10 PM EAT on January 20, 2017 (GMT +0300)
Mombasa

Weather History for HKMO - March, 2014

Change the Weather History Date:

Saturday, March 29, 2014

  Actual Average Record
Temperature  
Mean Temperature 84 °F -  
Max Temperature 90 °F 90 °F 95 °F (2016)
Min Temperature 77 °F 73 °F 71 °F (2006)
Cooling Degree Days 18    
Growing Degree Days 34 (Base 50)    
Moisture  
Dew Point 75 °F    
Average Humidity 79    
Maximum Humidity 94    
Minimum Humidity 47    
Precipitation  
Precipitation 0.00 in 0.20 in - ()
Sea Level Pressure  
Sea Level Pressure 29.83 in    
Wind  
Wind Speed 4 mph ()    
Max Wind Speed 14 mph    
Max Gust Speed -    
Visibility 7.7 miles    
Events      
Averages and records for this station are not official NWS values.
T = Trace of Precipitation, MM = Missing Value Source: Averaged Metar Reports

Daily Weather History Graph

Daily Weather History Graph

Search for Another Location

Airport or City:

Trip Planner

Search our weather history database for the weather conditions in past years. The results will help you decide how hot, cold, wet, or windy it might be!

Date:

Astronomy

Mar. 29, 2014 Rise Set
Actual Time 6:23 AM EAT 6:28 PM EAT
Civil Twilight 6:03 AM EAT 6:49 PM EAT
Nautical Twilight 5:39 AM EAT 7:13 PM EAT
Astronomical Twilight 5:15 AM EAT 7:37 PM EAT
Moon 4:57 AM EAT (3/29) 5:22 PM EAT (3/29)
Length of Visible Light 12h 46m
Length of Day
12h 04m
Waning Crescent, 3% of the Moon is Illuminated
Mar 29
Waning Crescent
Mar 30
New
Apr 7
First Quarter
Apr 15
Full
Apr 22
Last Quarter

Hourly Weather History & Observations

Time (EAT) Temp. Heat Index Dew Point Humidity Pressure Visibility Wind Dir Wind Speed Gust Speed Precip Events Conditions
12:00 AM 78.8 °F - 75.2 °F 89% 29.89 in 6.2 mi Calm Calm - N/A   Scattered Clouds
1:00 AM 78.8 °F - 75.2 °F 89% 29.86 in 6.2 mi West 6.9 mph - N/A   Scattered Clouds
2:00 AM 78.8 °F - 73.4 °F 83% 29.83 in 6.2 mi Calm Calm - N/A   Partly Cloudy
2:30 AM 77.0 °F - 73.4 °F 89% 29.83 in 6.2 mi West 3.5 mph - N/A   Partly Cloudy
3:00 AM 77.0 °F - 75.2 °F 94% 29.83 in 6.2 mi Calm Calm - N/A   Scattered Clouds
3:30 AM 77.0 °F - 75.2 °F 94% 29.83 in 6.2 mi Calm Calm - N/A   Scattered Clouds
4:00 AM 77.0 °F - 75.2 °F 94% 29.80 in 6.2 mi Calm Calm - N/A   Scattered Clouds
4:30 AM 77.0 °F - 75.2 °F 94% 29.80 in 6.2 mi Calm Calm - N/A   Scattered Clouds
5:00 AM 77.0 °F - 75.2 °F 94% 29.80 in 6.2 mi Calm Calm - N/A   Scattered Clouds
5:30 AM 77.0 °F - 75.2 °F 94% 29.80 in 6.2 mi Calm Calm - N/A   Mostly Cloudy
6:00 AM 77.0 °F - 75.2 °F 94% 29.83 in 6.2 mi West 3.5 mph - N/A   Mostly Cloudy
7:00 AM 77.0 °F - 75.2 °F 94% 29.86 in 6.2 mi NW 5.8 mph - N/A   Scattered Clouds
7:30 AM 78.8 °F - 75.2 °F 89% 29.86 in 6.2 mi NW 5.8 mph - N/A   Scattered Clouds
8:00 AM 78.8 °F - 77.0 °F 94% 29.86 in 6.2 mi Calm Calm - N/A   Scattered Clouds
8:30 AM 82.4 °F 90.9 °F 77.0 °F 84% 29.89 in 6.2 mi North 5.8 mph - N/A   Partly Cloudy
9:00 AM 84.2 °F 94.1 °F 77.0 °F 79% 29.89 in 6.2 mi North 13.8 mph - N/A   Mostly Cloudy
10:00 AM 86.0 °F 96.9 °F 77.0 °F 74% 29.89 in 6.2 mi North 5.8 mph - N/A   Mostly Cloudy
11:00 AM 87.8 °F 95.6 °F 73.4 °F 62% 29.89 in 6.2 mi North 8.1 mph - N/A   Mostly Cloudy
12:00 PM 89 °F - 71 °F 47% 29.87 in 19 mi NNE 11.5 mph - -   Partly Cloudy
12:00 PM 89.6 °F 96.2 °F 71.6 °F 55% 29.86 in 6.2 mi NNE 11.5 mph - N/A   Mostly Cloudy
1:00 PM 91.4 °F 100.1 °F 73.4 °F 55% 29.83 in 6.2 mi East 5.8 mph - N/A   Mostly Cloudy
2:00 PM 89.6 °F 99.8 °F 75.2 °F 62% 29.80 in 6.2 mi ENE 11.5 mph - N/A   Mostly Cloudy
3:00 PM 88 °F - 75 °F 58% 29.78 in 19 mi East 13.8 mph - -   Scattered Clouds
3:00 PM 87.8 °F 97.6 °F 75.2 °F 66% 29.77 in 6.2 mi East 13.8 mph - N/A   Mostly Cloudy
4:00 PM 87.8 °F 97.6 °F 75.2 °F 66% 29.77 in 6.2 mi ENE 13.8 mph - N/A   Mostly Cloudy
5:00 PM 87.8 °F 97.6 °F 75.2 °F 66% 29.77 in 6.2 mi East 6.9 mph - N/A   Mostly Cloudy
6:00 PM 85 °F - 75 °F 65% 29.78 in 19 mi East 13.8 mph - -   Scattered Clouds
6:00 PM 84.2 °F 92.3 °F 75.2 °F 74% 29.77 in 6.2 mi East 13.8 mph - N/A   Mostly Cloudy
7:00 PM 84.2 °F 92.3 °F 75.2 °F 74% 29.80 in 6.2 mi East 8.1 mph - N/A   Mostly Cloudy
8:00 PM 82.4 °F 89.5 °F 75.2 °F 79% 29.83 in 6.2 mi East 5.8 mph - N/A   Partly Cloudy
9:00 PM 82 °F - 76 °F 78% 29.84 in 19 mi East 5.8 mph - -   Scattered Clouds
9:00 PM 82.4 °F 90.9 °F 77.0 °F 84% 29.83 in 6.2 mi East 5.8 mph - N/A   Partly Cloudy
10:00 PM 82.4 °F 90.9 °F 77.0 °F 84% 29.86 in 6.2 mi ENE 6.9 mph - N/A   Partly Cloudy
11:00 PM 82.4 °F 90.9 °F 77.0 °F 84% 29.86 in 6.2 mi East 6.9 mph - N/A   Scattered Clouds
11:30 PM 82.4 °F 90.9 °F 77.0 °F 84% 29.86 in 6.2 mi ENE 4.6 mph - N/A   Partly Cloudy